Index of /20260422/WXO-DD/model_rdps/10km/06/046
Name Last modified Size Description
Parent Directory -
20260422T06Z_MSC_RDPS_AbsoluteVorticity_IsbL-0250_RLatLon0.09_PT046H.grib2 2026-04-22 08:54 619K
20260422T06Z_MSC_RDPS_AbsoluteVorticity_IsbL-0500_RLatLon0.09_PT046H.grib2 2026-04-22 08:54 567K
20260422T06Z_MSC_RDPS_AbsoluteVorticity_IsbL-0700_RLatLon0.09_PT046H.grib2 2026-04-22 08:54 618K
20260422T06Z_MSC_RDPS_AbsoluteVorticity_IsbL-0850_RLatLon0.09_PT046H.grib2 2026-04-22 08:54 776K
20260422T06Z_MSC_RDPS_AirTemp_AGL-120m_RLatLon0.09_PT046H.grib2 2026-04-22 08:54 369K
20260422T06Z_MSC_RDPS_AirTemp_AGL-2m_RLatLon0.09_PT046H.grib2 2026-04-22 08:54 611K
20260422T06Z_MSC_RDPS_AirTemp_AGL-40m_RLatLon0.09_PT046H.grib2 2026-04-22 08:54 383K
20260422T06Z_MSC_RDPS_AirTemp_AGL-80m_RLatLon0.09_PT046H.grib2 2026-04-22 08:54 374K
20260422T06Z_MSC_RDPS_AirTemp_IsbL-0001_RLatLon0.09_PT046H.grib2 2026-04-22 08:54 227K
20260422T06Z_MSC_RDPS_AirTemp_IsbL-0005_RLatLon0.09_PT046H.grib2 2026-04-22 08:54 330K
20260422T06Z_MSC_RDPS_AirTemp_IsbL-0010_RLatLon0.09_PT046H.grib2 2026-04-22 08:54 302K
20260422T06Z_MSC_RDPS_AirTemp_IsbL-0020_RLatLon0.09_PT046H.grib2 2026-04-22 08:54 323K
20260422T06Z_MSC_RDPS_AirTemp_IsbL-0030_RLatLon0.09_PT046H.grib2 2026-04-22 08:54 343K
20260422T06Z_MSC_RDPS_AirTemp_IsbL-0050_RLatLon0.09_PT046H.grib2 2026-04-22 08:54 326K
20260422T06Z_MSC_RDPS_AirTemp_IsbL-0100_RLatLon0.09_PT046H.grib2 2026-04-22 08:54 431K
20260422T06Z_MSC_RDPS_AirTemp_IsbL-0150_RLatLon0.09_PT046H.grib2 2026-04-22 08:54 433K
20260422T06Z_MSC_RDPS_AirTemp_IsbL-0175_RLatLon0.09_PT046H.grib2 2026-04-22 08:54 428K
20260422T06Z_MSC_RDPS_AirTemp_IsbL-0200_RLatLon0.09_PT046H.grib2 2026-04-22 08:54 428K
20260422T06Z_MSC_RDPS_AirTemp_IsbL-0225_RLatLon0.09_PT046H.grib2 2026-04-22 08:54 424K
20260422T06Z_MSC_RDPS_AirTemp_IsbL-0250_RLatLon0.09_PT046H.grib2 2026-04-22 08:54 427K
20260422T06Z_MSC_RDPS_AirTemp_IsbL-0275_RLatLon0.09_PT046H.grib2 2026-04-22 08:54 407K
20260422T06Z_MSC_RDPS_AirTemp_IsbL-0300_RLatLon0.09_PT046H.grib2 2026-04-22 08:54 412K
20260422T06Z_MSC_RDPS_AirTemp_IsbL-0350_RLatLon0.09_PT046H.grib2 2026-04-22 08:54 425K
20260422T06Z_MSC_RDPS_AirTemp_IsbL-0400_RLatLon0.09_PT046H.grib2 2026-04-22 08:54 427K
20260422T06Z_MSC_RDPS_AirTemp_IsbL-0450_RLatLon0.09_PT046H.grib2 2026-04-22 08:54 400K
20260422T06Z_MSC_RDPS_AirTemp_IsbL-0500_RLatLon0.09_PT046H.grib2 2026-04-22 08:54 414K
20260422T06Z_MSC_RDPS_AirTemp_IsbL-0550_RLatLon0.09_PT046H.grib2 2026-04-22 08:54 434K
20260422T06Z_MSC_RDPS_AirTemp_IsbL-0600_RLatLon0.09_PT046H.grib2 2026-04-22 08:54 452K
20260422T06Z_MSC_RDPS_AirTemp_IsbL-0650_RLatLon0.09_PT046H.grib2 2026-04-22 08:54 465K
20260422T06Z_MSC_RDPS_AirTemp_IsbL-0700_RLatLon0.09_PT046H.grib2 2026-04-22 08:54 488K
20260422T06Z_MSC_RDPS_AirTemp_IsbL-0750_RLatLon0.09_PT046H.grib2 2026-04-22 08:54 526K
20260422T06Z_MSC_RDPS_AirTemp_IsbL-0800_RLatLon0.09_PT046H.grib2 2026-04-22 08:54 460K
20260422T06Z_MSC_RDPS_AirTemp_IsbL-0850_RLatLon0.09_PT046H.grib2 2026-04-22 08:54 495K
20260422T06Z_MSC_RDPS_AirTemp_IsbL-0875_RLatLon0.09_PT046H.grib2 2026-04-22 08:54 506K
20260422T06Z_MSC_RDPS_AirTemp_IsbL-0900_RLatLon0.09_PT046H.grib2 2026-04-22 08:54 512K
20260422T06Z_MSC_RDPS_AirTemp_IsbL-0925_RLatLon0.09_PT046H.grib2 2026-04-22 08:54 512K
20260422T06Z_MSC_RDPS_AirTemp_IsbL-0950_RLatLon0.09_PT046H.grib2 2026-04-22 08:54 513K
20260422T06Z_MSC_RDPS_AirTemp_IsbL-0970_RLatLon0.09_PT046H.grib2 2026-04-22 08:54 505K
20260422T06Z_MSC_RDPS_AirTemp_IsbL-0985_RLatLon0.09_PT046H.grib2 2026-04-22 08:54 496K
20260422T06Z_MSC_RDPS_AirTemp_IsbL-1000_RLatLon0.09_PT046H.grib2 2026-04-22 08:54 481K
20260422T06Z_MSC_RDPS_AirTemp_IsbL-1015_RLatLon0.09_PT046H.grib2 2026-04-22 08:54 477K
20260422T06Z_MSC_RDPS_Albedo_Sfc_RLatLon0.09_PT046H.grib2 2026-04-22 08:54 166K
20260422T06Z_MSC_RDPS_CAPE_Sfc_RLatLon0.09_PT046H.grib2 2026-04-22 08:54 1.6M
20260422T06Z_MSC_RDPS_CIN_Sfc_RLatLon0.09_PT046H.grib2 2026-04-22 08:54 1.1M
20260422T06Z_MSC_RDPS_CloudWater_EAtm_RLatLon0.09_PT046H.grib2 2026-04-22 08:54 216K
20260422T06Z_MSC_RDPS_ConvectivePrecip-Accum_Sfc_RLatLon0.09_PT046H.grib2 2026-04-22 08:54 1.1M
20260422T06Z_MSC_RDPS_DewPointDepression_AGL-2m_RLatLon0.09_PT046H.grib2 2026-04-22 08:54 392K
20260422T06Z_MSC_RDPS_DewPointDepression_IsbL-0001_RLatLon0.09_PT046H.grib2 2026-04-22 08:54 193
20260422T06Z_MSC_RDPS_DewPointDepression_IsbL-0005_RLatLon0.09_PT046H.grib2 2026-04-22 08:54 193
20260422T06Z_MSC_RDPS_DewPointDepression_IsbL-0010_RLatLon0.09_PT046H.grib2 2026-04-22 08:54 193
20260422T06Z_MSC_RDPS_DewPointDepression_IsbL-0020_RLatLon0.09_PT046H.grib2 2026-04-22 08:54 193
20260422T06Z_MSC_RDPS_DewPointDepression_IsbL-0030_RLatLon0.09_PT046H.grib2 2026-04-22 08:54 193
20260422T06Z_MSC_RDPS_DewPointDepression_IsbL-0050_RLatLon0.09_PT046H.grib2 2026-04-22 08:54 88K
20260422T06Z_MSC_RDPS_DewPointDepression_IsbL-0100_RLatLon0.09_PT046H.grib2 2026-04-22 08:54 127K
20260422T06Z_MSC_RDPS_DewPointDepression_IsbL-0150_RLatLon0.09_PT046H.grib2 2026-04-22 08:54 151K
20260422T06Z_MSC_RDPS_DewPointDepression_IsbL-0175_RLatLon0.09_PT046H.grib2 2026-04-22 08:54 195K
20260422T06Z_MSC_RDPS_DewPointDepression_IsbL-0200_RLatLon0.09_PT046H.grib2 2026-04-22 08:54 229K
20260422T06Z_MSC_RDPS_DewPointDepression_IsbL-0225_RLatLon0.09_PT046H.grib2 2026-04-22 08:54 265K
20260422T06Z_MSC_RDPS_DewPointDepression_IsbL-0250_RLatLon0.09_PT046H.grib2 2026-04-22 08:54 301K
20260422T06Z_MSC_RDPS_DewPointDepression_IsbL-0275_RLatLon0.09_PT046H.grib2 2026-04-22 08:54 310K
20260422T06Z_MSC_RDPS_DewPointDepression_IsbL-0300_RLatLon0.09_PT046H.grib2 2026-04-22 08:54 330K
20260422T06Z_MSC_RDPS_DewPointDepression_IsbL-0350_RLatLon0.09_PT046H.grib2 2026-04-22 08:54 333K
20260422T06Z_MSC_RDPS_DewPointDepression_IsbL-0400_RLatLon0.09_PT046H.grib2 2026-04-22 08:54 346K
20260422T06Z_MSC_RDPS_DewPointDepression_IsbL-0450_RLatLon0.09_PT046H.grib2 2026-04-22 08:54 355K
20260422T06Z_MSC_RDPS_DewPointDepression_IsbL-0500_RLatLon0.09_PT046H.grib2 2026-04-22 08:54 371K
20260422T06Z_MSC_RDPS_DewPointDepression_IsbL-0550_RLatLon0.09_PT046H.grib2 2026-04-22 08:54 383K
20260422T06Z_MSC_RDPS_DewPointDepression_IsbL-0600_RLatLon0.09_PT046H.grib2 2026-04-22 08:54 390K
20260422T06Z_MSC_RDPS_DewPointDepression_IsbL-0650_RLatLon0.09_PT046H.grib2 2026-04-22 08:54 394K
20260422T06Z_MSC_RDPS_DewPointDepression_IsbL-0700_RLatLon0.09_PT046H.grib2 2026-04-22 08:54 402K
20260422T06Z_MSC_RDPS_DewPointDepression_IsbL-0750_RLatLon0.09_PT046H.grib2 2026-04-22 08:54 419K
20260422T06Z_MSC_RDPS_DewPointDepression_IsbL-0800_RLatLon0.09_PT046H.grib2 2026-04-22 08:54 446K
20260422T06Z_MSC_RDPS_DewPointDepression_IsbL-0850_RLatLon0.09_PT046H.grib2 2026-04-22 08:54 460K
20260422T06Z_MSC_RDPS_DewPointDepression_IsbL-0875_RLatLon0.09_PT046H.grib2 2026-04-22 08:54 462K
20260422T06Z_MSC_RDPS_DewPointDepression_IsbL-0900_RLatLon0.09_PT046H.grib2 2026-04-22 08:54 459K
20260422T06Z_MSC_RDPS_DewPointDepression_IsbL-0925_RLatLon0.09_PT046H.grib2 2026-04-22 08:54 447K
20260422T06Z_MSC_RDPS_DewPointDepression_IsbL-0950_RLatLon0.09_PT046H.grib2 2026-04-22 08:54 435K
20260422T06Z_MSC_RDPS_DewPointDepression_IsbL-0970_RLatLon0.09_PT046H.grib2 2026-04-22 08:54 427K
20260422T06Z_MSC_RDPS_DewPointDepression_IsbL-0985_RLatLon0.09_PT046H.grib2 2026-04-22 08:54 423K
20260422T06Z_MSC_RDPS_DewPointDepression_IsbL-1000_RLatLon0.09_PT046H.grib2 2026-04-22 08:54 415K
20260422T06Z_MSC_RDPS_DewPointDepression_IsbL-1015_RLatLon0.09_PT046H.grib2 2026-04-22 08:54 404K
20260422T06Z_MSC_RDPS_DewPoint_AGL-2m_RLatLon0.09_PT046H.grib2 2026-04-22 08:54 383K
20260422T06Z_MSC_RDPS_DownwardLongwaveRadiationFlux-Accum_Sfc_RLatLon0.09_PT046H.grib2 2026-04-22 08:54 368K
20260422T06Z_MSC_RDPS_DownwardShortwaveRadiationFlux-Accum_NTAtm_RLatLon0.09_PT046H.grib2 2026-04-22 08:54 128K
20260422T06Z_MSC_RDPS_DownwardShortwaveRadiationFlux-Accum_Sfc_RLatLon0.09_PT046H.grib2 2026-04-22 08:54 557K
20260422T06Z_MSC_RDPS_FreezingRain-Accum1h_Sfc_RLatLon0.09_PT046H.grib2 2026-04-22 08:54 23K
20260422T06Z_MSC_RDPS_FreezingRain-Accum_Sfc_RLatLon0.09_PT046H.grib2 2026-04-22 08:54 120K
20260422T06Z_MSC_RDPS_GeopotentialHeight_IsbL-0001_RLatLon0.09_PT046H.grib2 2026-04-22 08:54 267K
20260422T06Z_MSC_RDPS_GeopotentialHeight_IsbL-0005_RLatLon0.09_PT046H.grib2 2026-04-22 08:54 304K
20260422T06Z_MSC_RDPS_GeopotentialHeight_IsbL-0010_RLatLon0.09_PT046H.grib2 2026-04-22 08:54 301K
20260422T06Z_MSC_RDPS_GeopotentialHeight_IsbL-0020_RLatLon0.09_PT046H.grib2 2026-04-22 08:54 301K
20260422T06Z_MSC_RDPS_GeopotentialHeight_IsbL-0030_RLatLon0.09_PT046H.grib2 2026-04-22 08:54 398K
20260422T06Z_MSC_RDPS_GeopotentialHeight_IsbL-0050_RLatLon0.09_PT046H.grib2 2026-04-22 08:54 306K
20260422T06Z_MSC_RDPS_GeopotentialHeight_IsbL-0100_RLatLon0.09_PT046H.grib2 2026-04-22 08:54 289K
20260422T06Z_MSC_RDPS_GeopotentialHeight_IsbL-0150_RLatLon0.09_PT046H.grib2 2026-04-22 08:54 231K
20260422T06Z_MSC_RDPS_GeopotentialHeight_IsbL-0175_RLatLon0.09_PT046H.grib2 2026-04-22 08:54 234K
20260422T06Z_MSC_RDPS_GeopotentialHeight_IsbL-0200_RLatLon0.09_PT046H.grib2 2026-04-22 08:54 238K
20260422T06Z_MSC_RDPS_GeopotentialHeight_IsbL-0225_RLatLon0.09_PT046H.grib2 2026-04-22 08:54 240K
20260422T06Z_MSC_RDPS_GeopotentialHeight_IsbL-0250_RLatLon0.09_PT046H.grib2 2026-04-22 08:54 241K
20260422T06Z_MSC_RDPS_GeopotentialHeight_IsbL-0275_RLatLon0.09_PT046H.grib2 2026-04-22 08:54 240K
20260422T06Z_MSC_RDPS_GeopotentialHeight_IsbL-0300_RLatLon0.09_PT046H.grib2 2026-04-22 08:54 239K
20260422T06Z_MSC_RDPS_GeopotentialHeight_IsbL-0350_RLatLon0.09_PT046H.grib2 2026-04-22 08:54 235K
20260422T06Z_MSC_RDPS_GeopotentialHeight_IsbL-0400_RLatLon0.09_PT046H.grib2 2026-04-22 08:54 231K
20260422T06Z_MSC_RDPS_GeopotentialHeight_IsbL-0450_RLatLon0.09_PT046H.grib2 2026-04-22 08:54 300K
20260422T06Z_MSC_RDPS_GeopotentialHeight_IsbL-0500_RLatLon0.09_PT046H.grib2 2026-04-22 08:54 295K
20260422T06Z_MSC_RDPS_GeopotentialHeight_IsbL-0550_RLatLon0.09_PT046H.grib2 2026-04-22 08:54 292K
20260422T06Z_MSC_RDPS_GeopotentialHeight_IsbL-0600_RLatLon0.09_PT046H.grib2 2026-04-22 08:54 288K
20260422T06Z_MSC_RDPS_GeopotentialHeight_IsbL-0650_RLatLon0.09_PT046H.grib2 2026-04-22 08:54 257K
20260422T06Z_MSC_RDPS_GeopotentialHeight_IsbL-0700_RLatLon0.09_PT046H.grib2 2026-04-22 08:54 255K
20260422T06Z_MSC_RDPS_GeopotentialHeight_IsbL-0750_RLatLon0.09_PT046H.grib2 2026-04-22 08:54 256K
20260422T06Z_MSC_RDPS_GeopotentialHeight_IsbL-0800_RLatLon0.09_PT046H.grib2 2026-04-22 08:54 347K
20260422T06Z_MSC_RDPS_GeopotentialHeight_IsbL-0850_RLatLon0.09_PT046H.grib2 2026-04-22 08:54 354K
20260422T06Z_MSC_RDPS_GeopotentialHeight_IsbL-0875_RLatLon0.09_PT046H.grib2 2026-04-22 08:54 355K
20260422T06Z_MSC_RDPS_GeopotentialHeight_IsbL-0900_RLatLon0.09_PT046H.grib2 2026-04-22 08:54 361K
20260422T06Z_MSC_RDPS_GeopotentialHeight_IsbL-0925_RLatLon0.09_PT046H.grib2 2026-04-22 08:54 364K
20260422T06Z_MSC_RDPS_GeopotentialHeight_IsbL-0950_RLatLon0.09_PT046H.grib2 2026-04-22 08:54 365K
20260422T06Z_MSC_RDPS_GeopotentialHeight_IsbL-0970_RLatLon0.09_PT046H.grib2 2026-04-22 08:54 369K
20260422T06Z_MSC_RDPS_GeopotentialHeight_IsbL-0985_RLatLon0.09_PT046H.grib2 2026-04-22 08:54 378K
20260422T06Z_MSC_RDPS_GeopotentialHeight_IsbL-1000_RLatLon0.09_PT046H.grib2 2026-04-22 08:54 389K
20260422T06Z_MSC_RDPS_GeopotentialHeight_IsbL-1015_RLatLon0.09_PT046H.grib2 2026-04-22 08:54 308K
20260422T06Z_MSC_RDPS_Humidex_Sfc_RLatLon0.09_PT046H.grib2 2026-04-22 08:54 2.4M
20260422T06Z_MSC_RDPS_IcePellets-Accum1h_Sfc_RLatLon0.09_PT046H.grib2 2026-04-22 08:54 16K
20260422T06Z_MSC_RDPS_IcePellets-Accum_Sfc_RLatLon0.09_PT046H.grib2 2026-04-22 08:54 57K
20260422T06Z_MSC_RDPS_KIndex_Sfc_RLatLon0.09_PT046H.grib2 2026-04-22 08:54 2.5M
20260422T06Z_MSC_RDPS_LatentHeatNetFlux_Sfc_RLatLon0.09_PT046H.grib2 2026-04-22 08:54 312K
20260422T06Z_MSC_RDPS_LiftedIndex-MU-VT_IsbL-0500_RLatLon0.09_PT046H.grib2 2026-04-22 08:54 2.4M
20260422T06Z_MSC_RDPS_NetLongwaveRadiationFlux-Accum_Sfc_RLatLon0.09_PT046H.grib2 2026-04-22 08:54 541K
20260422T06Z_MSC_RDPS_NetShortwaveRadiationFlux-Accum_Sfc_RLatLon0.09_PT046H.grib2 2026-04-22 08:54 564K
20260422T06Z_MSC_RDPS_PlanetaryBoundaryLayerHeight_Sfc_RLatLon0.09_PT046H.grib2 2026-04-22 08:54 1.1M
20260422T06Z_MSC_RDPS_Precip-Accum1h_Sfc_RLatLon0.09_PT046H.grib2 2026-04-22 08:54 1.2M
20260422T06Z_MSC_RDPS_Precip-Accum_Sfc_RLatLon0.09_PT046H.grib2 2026-04-22 08:54 2.1M
20260422T06Z_MSC_RDPS_PrecipRate_Sfc_RLatLon0.09_PT046H.grib2 2026-04-22 08:54 178K
20260422T06Z_MSC_RDPS_PrecipType-Instant_Sfc_RLatLon0.09_PT046H.grib2 2026-04-22 08:54 526K
20260422T06Z_MSC_RDPS_Pressure-Trend3h_Sfc_RLatLon0.09_PT046H.grib2 2026-04-22 08:54 1.1M
20260422T06Z_MSC_RDPS_Pressure_MSL_RLatLon0.09_PT046H.grib2 2026-04-22 08:54 324K
20260422T06Z_MSC_RDPS_Pressure_PVU-1.5_RLatLon0.09_PT046H.grib2 2026-04-22 08:54 2.3M
20260422T06Z_MSC_RDPS_Pressure_PVU-1_RLatLon0.09_PT046H.grib2 2026-04-22 08:54 2.4M
20260422T06Z_MSC_RDPS_Pressure_PVU-2_RLatLon0.09_PT046H.grib2 2026-04-22 08:54 2.4M
20260422T06Z_MSC_RDPS_Pressure_Sfc_RLatLon0.09_PT046H.grib2 2026-04-22 08:54 500K
20260422T06Z_MSC_RDPS_RadiativeTemp_Sfc_RLatLon0.09_PT046H.grib2 2026-04-22 08:54 300K
20260422T06Z_MSC_RDPS_Rain-Accum1h_Sfc_RLatLon0.09_PT046H.grib2 2026-04-22 08:54 467K
20260422T06Z_MSC_RDPS_Rain-Accum_Sfc_RLatLon0.09_PT046H.grib2 2026-04-22 08:54 1.6M
20260422T06Z_MSC_RDPS_RelativeHumidity_AGL-2m_RLatLon0.09_PT046H.grib2 2026-04-22 08:54 1.0M
20260422T06Z_MSC_RDPS_RelativeHumidity_IsbL-0010_RLatLon0.09_PT046H.grib2 2026-04-22 08:54 624K
20260422T06Z_MSC_RDPS_RelativeHumidity_IsbL-0020_RLatLon0.09_PT046H.grib2 2026-04-22 08:54 655K
20260422T06Z_MSC_RDPS_RelativeHumidity_IsbL-0030_RLatLon0.09_PT046H.grib2 2026-04-22 08:54 546K
20260422T06Z_MSC_RDPS_RelativeHumidity_IsbL-0050_RLatLon0.09_PT046H.grib2 2026-04-22 08:54 378K
20260422T06Z_MSC_RDPS_RelativeHumidity_IsbL-0100_RLatLon0.09_PT046H.grib2 2026-04-22 08:54 364K
20260422T06Z_MSC_RDPS_RelativeHumidity_IsbL-0150_RLatLon0.09_PT046H.grib2 2026-04-22 08:54 393K
20260422T06Z_MSC_RDPS_RelativeHumidity_IsbL-0175_RLatLon0.09_PT046H.grib2 2026-04-22 08:54 495K
20260422T06Z_MSC_RDPS_RelativeHumidity_IsbL-0200_RLatLon0.09_PT046H.grib2 2026-04-22 08:54 579K
20260422T06Z_MSC_RDPS_RelativeHumidity_IsbL-0225_RLatLon0.09_PT046H.grib2 2026-04-22 08:54 642K
20260422T06Z_MSC_RDPS_RelativeHumidity_IsbL-0250_RLatLon0.09_PT046H.grib2 2026-04-22 08:54 706K
20260422T06Z_MSC_RDPS_RelativeHumidity_IsbL-0275_RLatLon0.09_PT046H.grib2 2026-04-22 08:54 727K
20260422T06Z_MSC_RDPS_RelativeHumidity_IsbL-0300_RLatLon0.09_PT046H.grib2 2026-04-22 08:54 768K
20260422T06Z_MSC_RDPS_RelativeHumidity_IsbL-0350_RLatLon0.09_PT046H.grib2 2026-04-22 08:54 781K
20260422T06Z_MSC_RDPS_RelativeHumidity_IsbL-0400_RLatLon0.09_PT046H.grib2 2026-04-22 08:54 791K
20260422T06Z_MSC_RDPS_RelativeHumidity_IsbL-0450_RLatLon0.09_PT046H.grib2 2026-04-22 08:54 800K
20260422T06Z_MSC_RDPS_RelativeHumidity_IsbL-0500_RLatLon0.09_PT046H.grib2 2026-04-22 08:54 817K
20260422T06Z_MSC_RDPS_RelativeHumidity_IsbL-0550_RLatLon0.09_PT046H.grib2 2026-04-22 08:54 841K
20260422T06Z_MSC_RDPS_RelativeHumidity_IsbL-0600_RLatLon0.09_PT046H.grib2 2026-04-22 08:54 860K
20260422T06Z_MSC_RDPS_RelativeHumidity_IsbL-0650_RLatLon0.09_PT046H.grib2 2026-04-22 08:54 866K
20260422T06Z_MSC_RDPS_RelativeHumidity_IsbL-0700_RLatLon0.09_PT046H.grib2 2026-04-22 08:54 884K
20260422T06Z_MSC_RDPS_RelativeHumidity_IsbL-0750_RLatLon0.09_PT046H.grib2 2026-04-22 08:54 924K
20260422T06Z_MSC_RDPS_RelativeHumidity_IsbL-0800_RLatLon0.09_PT046H.grib2 2026-04-22 08:54 1.0M
20260422T06Z_MSC_RDPS_RelativeHumidity_IsbL-0850_RLatLon0.09_PT046H.grib2 2026-04-22 08:54 1.0M
20260422T06Z_MSC_RDPS_RelativeHumidity_IsbL-0875_RLatLon0.09_PT046H.grib2 2026-04-22 08:54 1.0M
20260422T06Z_MSC_RDPS_RelativeHumidity_IsbL-0900_RLatLon0.09_PT046H.grib2 2026-04-22 08:54 1.0M
20260422T06Z_MSC_RDPS_RelativeHumidity_IsbL-0925_RLatLon0.09_PT046H.grib2 2026-04-22 08:54 1.0M
20260422T06Z_MSC_RDPS_RelativeHumidity_IsbL-0950_RLatLon0.09_PT046H.grib2 2026-04-22 08:54 1.0M
20260422T06Z_MSC_RDPS_RelativeHumidity_IsbL-0970_RLatLon0.09_PT046H.grib2 2026-04-22 08:54 1.0M
20260422T06Z_MSC_RDPS_RelativeHumidity_IsbL-0985_RLatLon0.09_PT046H.grib2 2026-04-22 08:54 1.0M
20260422T06Z_MSC_RDPS_RelativeHumidity_IsbL-1000_RLatLon0.09_PT046H.grib2 2026-04-22 08:54 1.0M
20260422T06Z_MSC_RDPS_RelativeHumidity_IsbL-1015_RLatLon0.09_PT046H.grib2 2026-04-22 08:54 1.0M
20260422T06Z_MSC_RDPS_Runoff-Accum_Sfc_RLatLon0.09_PT046H.grib2 2026-04-22 08:54 56K
20260422T06Z_MSC_RDPS_SWEATIndex_Sfc_RLatLon0.09_PT046H.grib2 2026-04-22 08:54 2.4M
20260422T06Z_MSC_RDPS_SeeingIndex_EAtm_RLatLon0.09_PT046H.grib2 2026-04-22 08:54 1.0M
20260422T06Z_MSC_RDPS_SensibleHeatNetFlux_Sfc_RLatLon0.09_PT046H.grib2 2026-04-22 08:54 295K
20260422T06Z_MSC_RDPS_ShowalterIndex_IsbL-0500_RLatLon0.09_PT046H.grib2 2026-04-22 08:54 2.6M
20260422T06Z_MSC_RDPS_SkyTransparencyIndex_EAtm_RLatLon0.09_PT046H.grib2 2026-04-22 08:54 729K
20260422T06Z_MSC_RDPS_Snow-Accum1h_Sfc_RLatLon0.09_PT046H.grib2 2026-04-22 08:54 495K
20260422T06Z_MSC_RDPS_Snow-Accum_Sfc_RLatLon0.09_PT046H.grib2 2026-04-22 08:54 830K
20260422T06Z_MSC_RDPS_SnowDensity_Sfc_RLatLon0.09_PT046H.grib2 2026-04-22 08:54 179K
20260422T06Z_MSC_RDPS_SnowDepth_Sfc_RLatLon0.09_PT046H.grib2 2026-04-22 08:54 720K
20260422T06Z_MSC_RDPS_SoilTemp_DBS-0to10cm_RLatLon0.09_PT046H.grib2 2026-04-22 08:54 236K
20260422T06Z_MSC_RDPS_SoilTemp_Sfc_RLatLon0.09_PT046H.grib2 2026-04-22 08:54 261K
20260422T06Z_MSC_RDPS_SoilVolumetricIceContent_Sfc_RLatLon0.09_PT046H.grib2 2026-04-22 08:54 167K
20260422T06Z_MSC_RDPS_SoilVolumetricWaterContent_DBS-0to10cm_RLatLon0.09_PT046H.grib2 2026-04-22 08:54 251K
20260422T06Z_MSC_RDPS_SoilVolumetricWaterContent_DBS-0to1cm_RLatLon0.09_PT046H.grib2 2026-04-22 08:54 340K
20260422T06Z_MSC_RDPS_SpecificHumidity_AGL-120m_RLatLon0.09_PT046H.grib2 2026-04-22 08:54 467K
20260422T06Z_MSC_RDPS_SpecificHumidity_AGL-2m_RLatLon0.09_PT046H.grib2 2026-04-22 08:54 627K
20260422T06Z_MSC_RDPS_SpecificHumidity_AGL-40m_RLatLon0.09_PT046H.grib2 2026-04-22 08:54 471K
20260422T06Z_MSC_RDPS_SpecificHumidity_AGL-80m_RLatLon0.09_PT046H.grib2 2026-04-22 08:54 467K
20260422T06Z_MSC_RDPS_SpecificHumidity_IsbL-0001_RLatLon0.09_PT046H.grib2 2026-04-22 08:54 333K
20260422T06Z_MSC_RDPS_SpecificHumidity_IsbL-0005_RLatLon0.09_PT046H.grib2 2026-04-22 08:54 417K
20260422T06Z_MSC_RDPS_SpecificHumidity_IsbL-0010_RLatLon0.09_PT046H.grib2 2026-04-22 08:54 390K
20260422T06Z_MSC_RDPS_SpecificHumidity_IsbL-0020_RLatLon0.09_PT046H.grib2 2026-04-22 08:54 380K
20260422T06Z_MSC_RDPS_SpecificHumidity_IsbL-0030_RLatLon0.09_PT046H.grib2 2026-04-22 08:54 444K
20260422T06Z_MSC_RDPS_SpecificHumidity_IsbL-0050_RLatLon0.09_PT046H.grib2 2026-04-22 08:54 469K
20260422T06Z_MSC_RDPS_SpecificHumidity_IsbL-0100_RLatLon0.09_PT046H.grib2 2026-04-22 08:54 510K
20260422T06Z_MSC_RDPS_SpecificHumidity_IsbL-0150_RLatLon0.09_PT046H.grib2 2026-04-22 08:54 468K
20260422T06Z_MSC_RDPS_SpecificHumidity_IsbL-0175_RLatLon0.09_PT046H.grib2 2026-04-22 08:54 551K
20260422T06Z_MSC_RDPS_SpecificHumidity_IsbL-0200_RLatLon0.09_PT046H.grib2 2026-04-22 08:54 568K
20260422T06Z_MSC_RDPS_SpecificHumidity_IsbL-0225_RLatLon0.09_PT046H.grib2 2026-04-22 08:54 571K
20260422T06Z_MSC_RDPS_SpecificHumidity_IsbL-0250_RLatLon0.09_PT046H.grib2 2026-04-22 08:54 569K
20260422T06Z_MSC_RDPS_SpecificHumidity_IsbL-0275_RLatLon0.09_PT046H.grib2 2026-04-22 08:54 482K
20260422T06Z_MSC_RDPS_SpecificHumidity_IsbL-0300_RLatLon0.09_PT046H.grib2 2026-04-22 08:54 552K
20260422T06Z_MSC_RDPS_SpecificHumidity_IsbL-0350_RLatLon0.09_PT046H.grib2 2026-04-22 08:54 537K
20260422T06Z_MSC_RDPS_SpecificHumidity_IsbL-0400_RLatLon0.09_PT046H.grib2 2026-04-22 08:54 518K
20260422T06Z_MSC_RDPS_SpecificHumidity_IsbL-0450_RLatLon0.09_PT046H.grib2 2026-04-22 08:54 573K
20260422T06Z_MSC_RDPS_SpecificHumidity_IsbL-0500_RLatLon0.09_PT046H.grib2 2026-04-22 08:54 517K
20260422T06Z_MSC_RDPS_SpecificHumidity_IsbL-0550_RLatLon0.09_PT046H.grib2 2026-04-22 08:54 577K
20260422T06Z_MSC_RDPS_SpecificHumidity_IsbL-0600_RLatLon0.09_PT046H.grib2 2026-04-22 08:54 645K
20260422T06Z_MSC_RDPS_SpecificHumidity_IsbL-0650_RLatLon0.09_PT046H.grib2 2026-04-22 08:54 557K
20260422T06Z_MSC_RDPS_SpecificHumidity_IsbL-0700_RLatLon0.09_PT046H.grib2 2026-04-22 08:54 594K
20260422T06Z_MSC_RDPS_SpecificHumidity_IsbL-0750_RLatLon0.09_PT046H.grib2 2026-04-22 08:54 647K
20260422T06Z_MSC_RDPS_SpecificHumidity_IsbL-0800_RLatLon0.09_PT046H.grib2 2026-04-22 08:54 714K
20260422T06Z_MSC_RDPS_SpecificHumidity_IsbL-0850_RLatLon0.09_PT046H.grib2 2026-04-22 08:54 779K
20260422T06Z_MSC_RDPS_SpecificHumidity_IsbL-0875_RLatLon0.09_PT046H.grib2 2026-04-22 08:54 800K
20260422T06Z_MSC_RDPS_SpecificHumidity_IsbL-0900_RLatLon0.09_PT046H.grib2 2026-04-22 08:54 816K
20260422T06Z_MSC_RDPS_SpecificHumidity_IsbL-0925_RLatLon0.09_PT046H.grib2 2026-04-22 08:54 818K
20260422T06Z_MSC_RDPS_SpecificHumidity_IsbL-0950_RLatLon0.09_PT046H.grib2 2026-04-22 08:54 813K
20260422T06Z_MSC_RDPS_SpecificHumidity_IsbL-0970_RLatLon0.09_PT046H.grib2 2026-04-22 08:54 804K
20260422T06Z_MSC_RDPS_SpecificHumidity_IsbL-0985_RLatLon0.09_PT046H.grib2 2026-04-22 08:54 797K
20260422T06Z_MSC_RDPS_SpecificHumidity_IsbL-1000_RLatLon0.09_PT046H.grib2 2026-04-22 08:54 649K
20260422T06Z_MSC_RDPS_SpecificHumidity_IsbL-1015_RLatLon0.09_PT046H.grib2 2026-04-22 08:54 636K
20260422T06Z_MSC_RDPS_SpecificHumidity_Sfc_RLatLon0.09_PT046H.grib2 2026-04-22 08:54 288K
20260422T06Z_MSC_RDPS_StormRelativeHelicity_EtaL-10000_RLatLon0.09_PT046H.grib2 2026-04-22 08:54 1.1M
20260422T06Z_MSC_RDPS_StormSeverityIndex_EtaL-10000_RLatLon0.09_PT046H.grib2 2026-04-22 08:54 1.2M
20260422T06Z_MSC_RDPS_Thickness_IsbL-0850to0700_RLatLon0.09_PT046H.grib2 2026-04-22 08:54 176K
20260422T06Z_MSC_RDPS_Thickness_IsbL-1000to0500_RLatLon0.09_PT046H.grib2 2026-04-22 08:54 198K
20260422T06Z_MSC_RDPS_Thickness_IsbL-1000to0850_RLatLon0.09_PT046H.grib2 2026-04-22 08:54 182K
20260422T06Z_MSC_RDPS_TotalCloudCover_Sfc_RLatLon0.09_PT046H.grib2 2026-04-22 08:54 651K
20260422T06Z_MSC_RDPS_TotalTotalsIndex_Sfc_RLatLon0.09_PT046H.grib2 2026-04-22 08:54 2.5M
20260422T06Z_MSC_RDPS_UVIndex-ClearSky_Sfc_RLatLon0.09_PT046H.grib2 2026-04-22 08:54 106K
20260422T06Z_MSC_RDPS_UVIndex_Sfc_RLatLon0.09_PT046H.grib2 2026-04-22 08:54 182K
20260422T06Z_MSC_RDPS_UpwardLongwaveRadiationFlux_NTAtm_RLatLon0.09_PT046H.grib2 2026-04-22 08:54 480K
20260422T06Z_MSC_RDPS_UpwardShortwaveRadiationFlux_NTAtm_RLatLon0.09_PT046H.grib2 2026-04-22 08:54 151K
20260422T06Z_MSC_RDPS_VerticalVelocity_IsbL-0250_RLatLon0.09_PT046H.grib2 2026-04-22 08:54 594K
20260422T06Z_MSC_RDPS_VerticalVelocity_IsbL-0500_RLatLon0.09_PT046H.grib2 2026-04-22 08:54 555K
20260422T06Z_MSC_RDPS_VerticalVelocity_IsbL-0700_RLatLon0.09_PT046H.grib2 2026-04-22 08:54 602K
20260422T06Z_MSC_RDPS_VerticalVelocity_IsbL-0850_RLatLon0.09_PT046H.grib2 2026-04-22 08:54 697K
20260422T06Z_MSC_RDPS_VerticalWindShear_EtaL-6500_RLatLon0.09_PT046H.grib2 2026-04-22 08:54 1.2M
20260422T06Z_MSC_RDPS_WindChill_Sfc_RLatLon0.09_PT046H.grib2 2026-04-22 08:54 1.2M
20260422T06Z_MSC_RDPS_WindDir_AGL-10m_RLatLon0.09_PT046H.grib2 2026-04-22 08:54 953K
20260422T06Z_MSC_RDPS_WindDir_AGL-120m_RLatLon0.09_PT046H.grib2 2026-04-22 08:54 588K
20260422T06Z_MSC_RDPS_WindDir_AGL-40m_RLatLon0.09_PT046H.grib2 2026-04-22 08:54 621K
20260422T06Z_MSC_RDPS_WindDir_AGL-80m_RLatLon0.09_PT046H.grib2 2026-04-22 08:54 601K
20260422T06Z_MSC_RDPS_WindDir_IsbL-0001_RLatLon0.09_PT046H.grib2 2026-04-22 08:54 283K
20260422T06Z_MSC_RDPS_WindDir_IsbL-0005_RLatLon0.09_PT046H.grib2 2026-04-22 08:54 368K
20260422T06Z_MSC_RDPS_WindDir_IsbL-0010_RLatLon0.09_PT046H.grib2 2026-04-22 08:54 381K
20260422T06Z_MSC_RDPS_WindDir_IsbL-0020_RLatLon0.09_PT046H.grib2 2026-04-22 08:54 407K
20260422T06Z_MSC_RDPS_WindDir_IsbL-0030_RLatLon0.09_PT046H.grib2 2026-04-22 08:54 417K
20260422T06Z_MSC_RDPS_WindDir_IsbL-0050_RLatLon0.09_PT046H.grib2 2026-04-22 08:54 442K
20260422T06Z_MSC_RDPS_WindDir_IsbL-0100_RLatLon0.09_PT046H.grib2 2026-04-22 08:54 427K
20260422T06Z_MSC_RDPS_WindDir_IsbL-0150_RLatLon0.09_PT046H.grib2 2026-04-22 08:54 423K
20260422T06Z_MSC_RDPS_WindDir_IsbL-0175_RLatLon0.09_PT046H.grib2 2026-04-22 08:54 446K
20260422T06Z_MSC_RDPS_WindDir_IsbL-0200_RLatLon0.09_PT046H.grib2 2026-04-22 08:54 448K
20260422T06Z_MSC_RDPS_WindDir_IsbL-0225_RLatLon0.09_PT046H.grib2 2026-04-22 08:54 444K
20260422T06Z_MSC_RDPS_WindDir_IsbL-0250_RLatLon0.09_PT046H.grib2 2026-04-22 08:54 444K
20260422T06Z_MSC_RDPS_WindDir_IsbL-0275_RLatLon0.09_PT046H.grib2 2026-04-22 08:54 464K
20260422T06Z_MSC_RDPS_WindDir_IsbL-0300_RLatLon0.09_PT046H.grib2 2026-04-22 08:54 462K
20260422T06Z_MSC_RDPS_WindDir_IsbL-0350_RLatLon0.09_PT046H.grib2 2026-04-22 08:54 483K
20260422T06Z_MSC_RDPS_WindDir_IsbL-0400_RLatLon0.09_PT046H.grib2 2026-04-22 08:54 506K
20260422T06Z_MSC_RDPS_WindDir_IsbL-0450_RLatLon0.09_PT046H.grib2 2026-04-22 08:54 533K
20260422T06Z_MSC_RDPS_WindDir_IsbL-0500_RLatLon0.09_PT046H.grib2 2026-04-22 08:54 549K
20260422T06Z_MSC_RDPS_WindDir_IsbL-0550_RLatLon0.09_PT046H.grib2 2026-04-22 08:54 564K
20260422T06Z_MSC_RDPS_WindDir_IsbL-0600_RLatLon0.09_PT046H.grib2 2026-04-22 08:54 591K
20260422T06Z_MSC_RDPS_WindDir_IsbL-0650_RLatLon0.09_PT046H.grib2 2026-04-22 08:54 634K
20260422T06Z_MSC_RDPS_WindDir_IsbL-0700_RLatLon0.09_PT046H.grib2 2026-04-22 08:54 683K
20260422T06Z_MSC_RDPS_WindDir_IsbL-0750_RLatLon0.09_PT046H.grib2 2026-04-22 08:54 732K
20260422T06Z_MSC_RDPS_WindDir_IsbL-0800_RLatLon0.09_PT046H.grib2 2026-04-22 08:54 798K
20260422T06Z_MSC_RDPS_WindDir_IsbL-0850_RLatLon0.09_PT046H.grib2 2026-04-22 08:54 859K
20260422T06Z_MSC_RDPS_WindDir_IsbL-0875_RLatLon0.09_PT046H.grib2 2026-04-22 08:54 876K
20260422T06Z_MSC_RDPS_WindDir_IsbL-0900_RLatLon0.09_PT046H.grib2 2026-04-22 08:54 892K
20260422T06Z_MSC_RDPS_WindDir_IsbL-0925_RLatLon0.09_PT046H.grib2 2026-04-22 08:54 900K
20260422T06Z_MSC_RDPS_WindDir_IsbL-0950_RLatLon0.09_PT046H.grib2 2026-04-22 08:54 894K
20260422T06Z_MSC_RDPS_WindDir_IsbL-0970_RLatLon0.09_PT046H.grib2 2026-04-22 08:54 901K
20260422T06Z_MSC_RDPS_WindDir_IsbL-0985_RLatLon0.09_PT046H.grib2 2026-04-22 08:54 911K
20260422T06Z_MSC_RDPS_WindDir_IsbL-1000_RLatLon0.09_PT046H.grib2 2026-04-22 08:54 927K
20260422T06Z_MSC_RDPS_WindDir_IsbL-1015_RLatLon0.09_PT046H.grib2 2026-04-22 08:54 943K
20260422T06Z_MSC_RDPS_WindGust-Max_AGL-10m_RLatLon0.09_PT046H.grib2 2026-04-22 08:54 1.0M
20260422T06Z_MSC_RDPS_WindGust-Min_AGL-10m_RLatLon0.09_PT046H.grib2 2026-04-22 08:54 973K
20260422T06Z_MSC_RDPS_WindGust_AGL-10m_RLatLon0.09_PT046H.grib2 2026-04-22 08:54 1.0M
20260422T06Z_MSC_RDPS_WindSpeed_AGL-10m_RLatLon0.09_PT046H.grib2 2026-04-22 08:54 840K
20260422T06Z_MSC_RDPS_WindSpeed_AGL-120m_RLatLon0.09_PT046H.grib2 2026-04-22 08:54 538K
20260422T06Z_MSC_RDPS_WindSpeed_AGL-40m_RLatLon0.09_PT046H.grib2 2026-04-22 08:54 543K
20260422T06Z_MSC_RDPS_WindSpeed_AGL-80m_RLatLon0.09_PT046H.grib2 2026-04-22 08:54 540K
20260422T06Z_MSC_RDPS_WindSpeed_IsbL-0001_RLatLon0.09_PT046H.grib2 2026-04-22 08:54 248K
20260422T06Z_MSC_RDPS_WindSpeed_IsbL-0005_RLatLon0.09_PT046H.grib2 2026-04-22 08:54 295K
20260422T06Z_MSC_RDPS_WindSpeed_IsbL-0010_RLatLon0.09_PT046H.grib2 2026-04-22 08:54 312K
20260422T06Z_MSC_RDPS_WindSpeed_IsbL-0020_RLatLon0.09_PT046H.grib2 2026-04-22 08:54 429K
20260422T06Z_MSC_RDPS_WindSpeed_IsbL-0030_RLatLon0.09_PT046H.grib2 2026-04-22 08:54 331K
20260422T06Z_MSC_RDPS_WindSpeed_IsbL-0050_RLatLon0.09_PT046H.grib2 2026-04-22 08:54 476K
20260422T06Z_MSC_RDPS_WindSpeed_IsbL-0100_RLatLon0.09_PT046H.grib2 2026-04-22 08:54 489K
20260422T06Z_MSC_RDPS_WindSpeed_IsbL-0150_RLatLon0.09_PT046H.grib2 2026-04-22 08:54 383K
20260422T06Z_MSC_RDPS_WindSpeed_IsbL-0175_RLatLon0.09_PT046H.grib2 2026-04-22 08:54 414K
20260422T06Z_MSC_RDPS_WindSpeed_IsbL-0200_RLatLon0.09_PT046H.grib2 2026-04-22 08:54 453K
20260422T06Z_MSC_RDPS_WindSpeed_IsbL-0225_RLatLon0.09_PT046H.grib2 2026-04-22 08:54 457K
20260422T06Z_MSC_RDPS_WindSpeed_IsbL-0250_RLatLon0.09_PT046H.grib2 2026-04-22 08:54 459K
20260422T06Z_MSC_RDPS_WindSpeed_IsbL-0275_RLatLon0.09_PT046H.grib2 2026-04-22 08:54 473K
20260422T06Z_MSC_RDPS_WindSpeed_IsbL-0300_RLatLon0.09_PT046H.grib2 2026-04-22 08:54 469K
20260422T06Z_MSC_RDPS_WindSpeed_IsbL-0350_RLatLon0.09_PT046H.grib2 2026-04-22 08:54 476K
20260422T06Z_MSC_RDPS_WindSpeed_IsbL-0400_RLatLon0.09_PT046H.grib2 2026-04-22 08:54 479K
20260422T06Z_MSC_RDPS_WindSpeed_IsbL-0450_RLatLon0.09_PT046H.grib2 2026-04-22 08:54 463K
20260422T06Z_MSC_RDPS_WindSpeed_IsbL-0500_RLatLon0.09_PT046H.grib2 2026-04-22 08:54 466K
20260422T06Z_MSC_RDPS_WindSpeed_IsbL-0550_RLatLon0.09_PT046H.grib2 2026-04-22 08:54 469K
20260422T06Z_MSC_RDPS_WindSpeed_IsbL-0600_RLatLon0.09_PT046H.grib2 2026-04-22 08:54 597K
20260422T06Z_MSC_RDPS_WindSpeed_IsbL-0650_RLatLon0.09_PT046H.grib2 2026-04-22 08:54 615K
20260422T06Z_MSC_RDPS_WindSpeed_IsbL-0700_RLatLon0.09_PT046H.grib2 2026-04-22 08:54 680K
20260422T06Z_MSC_RDPS_WindSpeed_IsbL-0750_RLatLon0.09_PT046H.grib2 2026-04-22 08:54 710K
20260422T06Z_MSC_RDPS_WindSpeed_IsbL-0800_RLatLon0.09_PT046H.grib2 2026-04-22 08:54 763K
20260422T06Z_MSC_RDPS_WindSpeed_IsbL-0850_RLatLon0.09_PT046H.grib2 2026-04-22 08:54 814K
20260422T06Z_MSC_RDPS_WindSpeed_IsbL-0875_RLatLon0.09_PT046H.grib2 2026-04-22 08:54 831K
20260422T06Z_MSC_RDPS_WindSpeed_IsbL-0900_RLatLon0.09_PT046H.grib2 2026-04-22 08:54 846K
20260422T06Z_MSC_RDPS_WindSpeed_IsbL-0925_RLatLon0.09_PT046H.grib2 2026-04-22 08:54 860K
20260422T06Z_MSC_RDPS_WindSpeed_IsbL-0950_RLatLon0.09_PT046H.grib2 2026-04-22 08:54 859K
20260422T06Z_MSC_RDPS_WindSpeed_IsbL-0970_RLatLon0.09_PT046H.grib2 2026-04-22 08:54 859K
20260422T06Z_MSC_RDPS_WindSpeed_IsbL-0985_RLatLon0.09_PT046H.grib2 2026-04-22 08:54 857K
20260422T06Z_MSC_RDPS_WindSpeed_IsbL-1000_RLatLon0.09_PT046H.grib2 2026-04-22 08:54 851K
20260422T06Z_MSC_RDPS_WindSpeed_IsbL-1015_RLatLon0.09_PT046H.grib2 2026-04-22 08:54 842K
20260422T06Z_MSC_RDPS_WindU_AGL-10m_RLatLon0.09_PT046H.grib2 2026-04-22 08:54 431K
20260422T06Z_MSC_RDPS_WindU_AGL-120m_RLatLon0.09_PT046H.grib2 2026-04-22 08:54 533K
20260422T06Z_MSC_RDPS_WindU_AGL-40m_RLatLon0.09_PT046H.grib2 2026-04-22 08:54 538K
20260422T06Z_MSC_RDPS_WindU_AGL-80m_RLatLon0.09_PT046H.grib2 2026-04-22 08:54 535K
20260422T06Z_MSC_RDPS_WindU_IsbL-0001_RLatLon0.09_PT046H.grib2 2026-04-22 08:54 240K
20260422T06Z_MSC_RDPS_WindU_IsbL-0005_RLatLon0.09_PT046H.grib2 2026-04-22 08:54 287K
20260422T06Z_MSC_RDPS_WindU_IsbL-0010_RLatLon0.09_PT046H.grib2 2026-04-22 08:54 344K
20260422T06Z_MSC_RDPS_WindU_IsbL-0020_RLatLon0.09_PT046H.grib2 2026-04-22 08:54 361K
20260422T06Z_MSC_RDPS_WindU_IsbL-0030_RLatLon0.09_PT046H.grib2 2026-04-22 08:54 361K
20260422T06Z_MSC_RDPS_WindU_IsbL-0050_RLatLon0.09_PT046H.grib2 2026-04-22 08:54 359K
20260422T06Z_MSC_RDPS_WindU_IsbL-0100_RLatLon0.09_PT046H.grib2 2026-04-22 08:54 478K
20260422T06Z_MSC_RDPS_WindU_IsbL-0150_RLatLon0.09_PT046H.grib2 2026-04-22 08:54 399K
20260422T06Z_MSC_RDPS_WindU_IsbL-0175_RLatLon0.09_PT046H.grib2 2026-04-22 08:54 429K
20260422T06Z_MSC_RDPS_WindU_IsbL-0200_RLatLon0.09_PT046H.grib2 2026-04-22 08:54 446K
20260422T06Z_MSC_RDPS_WindU_IsbL-0225_RLatLon0.09_PT046H.grib2 2026-04-22 08:54 448K
20260422T06Z_MSC_RDPS_WindU_IsbL-0250_RLatLon0.09_PT046H.grib2 2026-04-22 08:54 348K
20260422T06Z_MSC_RDPS_WindU_IsbL-0275_RLatLon0.09_PT046H.grib2 2026-04-22 08:54 359K
20260422T06Z_MSC_RDPS_WindU_IsbL-0300_RLatLon0.09_PT046H.grib2 2026-04-22 08:54 354K
20260422T06Z_MSC_RDPS_WindU_IsbL-0350_RLatLon0.09_PT046H.grib2 2026-04-22 08:54 360K
20260422T06Z_MSC_RDPS_WindU_IsbL-0400_RLatLon0.09_PT046H.grib2 2026-04-22 08:54 362K
20260422T06Z_MSC_RDPS_WindU_IsbL-0450_RLatLon0.09_PT046H.grib2 2026-04-22 08:54 467K
20260422T06Z_MSC_RDPS_WindU_IsbL-0500_RLatLon0.09_PT046H.grib2 2026-04-22 08:54 470K
20260422T06Z_MSC_RDPS_WindU_IsbL-0550_RLatLon0.09_PT046H.grib2 2026-04-22 08:54 474K
20260422T06Z_MSC_RDPS_WindU_IsbL-0600_RLatLon0.09_PT046H.grib2 2026-04-22 08:54 483K
20260422T06Z_MSC_RDPS_WindU_IsbL-0650_RLatLon0.09_PT046H.grib2 2026-04-22 08:54 483K
20260422T06Z_MSC_RDPS_WindU_IsbL-0700_RLatLon0.09_PT046H.grib2 2026-04-22 08:54 504K
20260422T06Z_MSC_RDPS_WindU_IsbL-0750_RLatLon0.09_PT046H.grib2 2026-04-22 08:54 530K
20260422T06Z_MSC_RDPS_WindU_IsbL-0800_RLatLon0.09_PT046H.grib2 2026-04-22 08:54 577K
20260422T06Z_MSC_RDPS_WindU_IsbL-0850_RLatLon0.09_PT046H.grib2 2026-04-22 08:54 622K
20260422T06Z_MSC_RDPS_WindU_IsbL-0875_RLatLon0.09_PT046H.grib2 2026-04-22 08:54 636K
20260422T06Z_MSC_RDPS_WindU_IsbL-0900_RLatLon0.09_PT046H.grib2 2026-04-22 08:54 648K
20260422T06Z_MSC_RDPS_WindU_IsbL-0925_RLatLon0.09_PT046H.grib2 2026-04-22 08:54 657K
20260422T06Z_MSC_RDPS_WindU_IsbL-0950_RLatLon0.09_PT046H.grib2 2026-04-22 08:54 651K
20260422T06Z_MSC_RDPS_WindU_IsbL-0970_RLatLon0.09_PT046H.grib2 2026-04-22 08:54 793K
20260422T06Z_MSC_RDPS_WindU_IsbL-0985_RLatLon0.09_PT046H.grib2 2026-04-22 08:54 791K
20260422T06Z_MSC_RDPS_WindU_IsbL-1000_RLatLon0.09_PT046H.grib2 2026-04-22 08:54 786K
20260422T06Z_MSC_RDPS_WindU_IsbL-1015_RLatLon0.09_PT046H.grib2 2026-04-22 08:54 779K
20260422T06Z_MSC_RDPS_WindV_AGL-10m_RLatLon0.09_PT046H.grib2 2026-04-22 08:54 381K
20260422T06Z_MSC_RDPS_WindV_AGL-120m_RLatLon0.09_PT046H.grib2 2026-04-22 08:54 416K
20260422T06Z_MSC_RDPS_WindV_AGL-40m_RLatLon0.09_PT046H.grib2 2026-04-22 08:54 421K
20260422T06Z_MSC_RDPS_WindV_AGL-80m_RLatLon0.09_PT046H.grib2 2026-04-22 08:54 418K
20260422T06Z_MSC_RDPS_WindV_IsbL-0001_RLatLon0.09_PT046H.grib2 2026-04-22 08:54 290K
20260422T06Z_MSC_RDPS_WindV_IsbL-0005_RLatLon0.09_PT046H.grib2 2026-04-22 08:54 329K
20260422T06Z_MSC_RDPS_WindV_IsbL-0010_RLatLon0.09_PT046H.grib2 2026-04-22 08:54 304K
20260422T06Z_MSC_RDPS_WindV_IsbL-0020_RLatLon0.09_PT046H.grib2 2026-04-22 08:54 325K
20260422T06Z_MSC_RDPS_WindV_IsbL-0030_RLatLon0.09_PT046H.grib2 2026-04-22 08:54 324K
20260422T06Z_MSC_RDPS_WindV_IsbL-0050_RLatLon0.09_PT046H.grib2 2026-04-22 08:54 360K
20260422T06Z_MSC_RDPS_WindV_IsbL-0100_RLatLon0.09_PT046H.grib2 2026-04-22 08:54 341K
20260422T06Z_MSC_RDPS_WindV_IsbL-0150_RLatLon0.09_PT046H.grib2 2026-04-22 08:54 397K
20260422T06Z_MSC_RDPS_WindV_IsbL-0175_RLatLon0.09_PT046H.grib2 2026-04-22 08:54 332K
20260422T06Z_MSC_RDPS_WindV_IsbL-0200_RLatLon0.09_PT046H.grib2 2026-04-22 08:54 345K
20260422T06Z_MSC_RDPS_WindV_IsbL-0225_RLatLon0.09_PT046H.grib2 2026-04-22 08:54 347K
20260422T06Z_MSC_RDPS_WindV_IsbL-0250_RLatLon0.09_PT046H.grib2 2026-04-22 08:54 371K
20260422T06Z_MSC_RDPS_WindV_IsbL-0275_RLatLon0.09_PT046H.grib2 2026-04-22 08:54 381K
20260422T06Z_MSC_RDPS_WindV_IsbL-0300_RLatLon0.09_PT046H.grib2 2026-04-22 08:54 376K
20260422T06Z_MSC_RDPS_WindV_IsbL-0350_RLatLon0.09_PT046H.grib2 2026-04-22 08:54 357K
20260422T06Z_MSC_RDPS_WindV_IsbL-0400_RLatLon0.09_PT046H.grib2 2026-04-22 08:54 361K
20260422T06Z_MSC_RDPS_WindV_IsbL-0450_RLatLon0.09_PT046H.grib2 2026-04-22 08:54 465K
20260422T06Z_MSC_RDPS_WindV_IsbL-0500_RLatLon0.09_PT046H.grib2 2026-04-22 08:54 468K
20260422T06Z_MSC_RDPS_WindV_IsbL-0550_RLatLon0.09_PT046H.grib2 2026-04-22 08:54 470K
20260422T06Z_MSC_RDPS_WindV_IsbL-0600_RLatLon0.09_PT046H.grib2 2026-04-22 08:54 479K
20260422T06Z_MSC_RDPS_WindV_IsbL-0650_RLatLon0.09_PT046H.grib2 2026-04-22 08:54 495K
20260422T06Z_MSC_RDPS_WindV_IsbL-0700_RLatLon0.09_PT046H.grib2 2026-04-22 08:54 513K
20260422T06Z_MSC_RDPS_WindV_IsbL-0750_RLatLon0.09_PT046H.grib2 2026-04-22 08:54 539K
20260422T06Z_MSC_RDPS_WindV_IsbL-0800_RLatLon0.09_PT046H.grib2 2026-04-22 08:54 571K
20260422T06Z_MSC_RDPS_WindV_IsbL-0850_RLatLon0.09_PT046H.grib2 2026-04-22 08:54 617K
20260422T06Z_MSC_RDPS_WindV_IsbL-0875_RLatLon0.09_PT046H.grib2 2026-04-22 08:54 632K
20260422T06Z_MSC_RDPS_WindV_IsbL-0900_RLatLon0.09_PT046H.grib2 2026-04-22 08:54 644K
20260422T06Z_MSC_RDPS_WindV_IsbL-0925_RLatLon0.09_PT046H.grib2 2026-04-22 08:54 654K
20260422T06Z_MSC_RDPS_WindV_IsbL-0950_RLatLon0.09_PT046H.grib2 2026-04-22 08:54 651K
20260422T06Z_MSC_RDPS_WindV_IsbL-0970_RLatLon0.09_PT046H.grib2 2026-04-22 08:54 650K
20260422T06Z_MSC_RDPS_WindV_IsbL-0985_RLatLon0.09_PT046H.grib2 2026-04-22 08:54 649K
20260422T06Z_MSC_RDPS_WindV_IsbL-1000_RLatLon0.09_PT046H.grib2 2026-04-22 08:54 645K
20260422T06Z_MSC_RDPS_WindV_IsbL-1015_RLatLon0.09_PT046H.grib2 2026-04-22 08:54 640K